This is the latest recevied weather packets stored in our database for station/object EB1BWO-11. If no packets are shown the sender has not sent any weather packets the latest 10 day(s).
| Time | Temp. | Humidity | Pressure | Rain* | Wind** | Luminosity | Snow |
|---|---|---|---|---|---|---|---|
| 1788337370 | 25° C | 57% | 1025.6 hPa | - | - | - | - |
| 1788336470 | 23.89° C | 59% | 1025.6 hPa | - | - | - | - |
| 1788335570 | 22.78° C | 59% | 1025.5 hPa | - | - | - | - |
| 1788334670 | 21.67° C | 62% | 1025.5 hPa | - | - | - | - |
| 1788333776 | 20.56° C | 63% | 1025.6 hPa | - | - | - | - |
| 1788332870 | 19.44° C | 63% | 1025.5 hPa | - | - | - | - |
| 1788331970 | 18.89° C | 64% | 1025.4 hPa | - | - | - | - |
| 1788331069 | 17.78° C | 65% | 1025.3 hPa | - | - | - | - |
| 1788330169 | 16.67° C | 65% | 1025.3 hPa | - | - | - | - |
| 1788329269 | 15.56° C | 66% | 1025.3 hPa | - | - | - | - |
| 1788328369 | 15° C | 66% | 1025.3 hPa | - | - | - | - |
| 1788327469 | 15° C | 66% | 1025.2 hPa | - | - | - | - |
| 1788326569 | 15° C | 68% | 1025.3 hPa | - | - | - | - |
| 1788325669 | 15° C | 67% | 1025.1 hPa | - | - | - | - |
| 1788324769 | 15° C | 67% | 1025.1 hPa | - | - | - | - |
| 1788323868 | 15° C | 67% | 1025.2 hPa | - | - | - | - |
| 1788322968 | 15° C | 67% | 1025.1 hPa | - | - | - | - |
| 1788322068 | 15° C | 67% | 1025.2 hPa | - | - | - | - |
| 1788321168 | 14.44° C | 66% | 1025.2 hPa | - | - | - | - |
| 1788320267 | 14.44° C | 67% | 1025.2 hPa | - | - | - | - |
| 1788319367 | 15° C | 65% | 1025.1 hPa | - | - | - | - |
| 1788318467 | 15° C | 66% | 1025.1 hPa | - | - | - | - |
| 1788317567 | 15° C | 66% | 1025 hPa | - | - | - | - |
| 1788316666 | 15° C | 67% | 1025 hPa | - | - | - | - |
| 1788315766 | 15° C | 66% | 1025.2 hPa | - | - | - | - |
* Rain since midnight (hover to see other rain measurements)
** Current wind speed in m/s (hover to see current wind gust speed)